sat.trackr.live / text

‹ back to catalog

STARLINK-32331

NORAD 61623 · 2024-191C

PAYLOAD ACTIVE UNKNOWN

§ Identity

Operator
Country
US
Launch date
2024-10-23
Launch site
AFETR
Launch vehicle
Mass (kg)
RCS (m²)

Purposes: comms

External: N2YO · Heavens-Above · Gunter

§ Orbital elements

Epoch: 2026-05-25T04:14:23.107776Z

Period
94.27 min
Inclination
43.0023°
Eccentricity
0.0001143
Mean motion
15.27580590 rev/d
Perigee alt
482.3 km
Apogee alt
483.8 km
Semi-major
6,861.2 km
B*
-5.2702e-6
RAAN
86.0505°
Arg perigee
262.6283°
Mean anomaly
97.4438°
Rev number
8,919

§ Raw data

STARLINK-323311 61623U 24191C   26145.17665634 -.00000407  00000+0 -52702-5 0  99942 61623  43.0023  86.0505 0001143 262.6283  97.4438 15.27580590 89198

JSON: /api/v1/satellites/61623 · /tle

For live sub-satellite position, see the globe view (requires WebGL).

§ Visibility from observer

Set your observer location to see the next 7 days of passes ≥ 10°. The values pass through the URL so the page stays shareable.

No JS? Fill the form by hand. The geolocation button needs JavaScript.